Simultaneous Nadir Overpasses (SNOs) Predictions

Prediction of SNOs between AURA and NPP Satellite Orbit:

Table of predicted SNOs for the next 14.0 days since TLE Epoch: 11/20/2021
Index Date (AURA) Time (AURA) Lat,Lon (AURA) SZA (AURA ) Date (NPP) Time (NPP) Lat,Lon (NPP) SZA (NPP ) Distance(km) Time Diff (sec)
1 11/22/2021 09:47:21 76.14, -85.21 115.51 11/22/2021 09:46:08 76.31, -86.36 115.78 35.59 73
2 11/22/2021 10:35:32 -79.49, 97.88 68.35 11/22/2021 10:35:34 -79.49, 97.80 68.33 1.62 2
3 11/25/2021 02:02:37 79.33, 45.03 112.44 11/25/2021 02:01:46 79.33, 44.99 112.48 0.82 51
4 11/25/2021 02:51:57 -79.61,-145.45 67.93 11/25/2021 02:52:23 -79.61,-145.45 67.95 0.31 26
5 11/27/2021 18:19:01 79.47, 161.87 112.78 11/27/2021 18:18:34 79.48, 161.96 112.78 1.96 27
6 11/27/2021 19:08:21 -79.74, -28.54 67.59 11/27/2021 19:09:11 -79.75, -28.40 67.65 2.87 50
7 11/30/2021 10:35:26 79.53, -81.84 113.18 11/30/2021 10:35:24 79.53, -81.87 113.19 0.81 2
8 11/30/2021 11:24:08 -80.98, 99.72 69.13 11/30/2021 11:25:22 -80.79, 100.20 69.28 22.26 74
9 12/03/2021 02:02:33 -79.33,-134.96 66.12 12/03/2021 02:01:38 -79.33,-135.00 66.07 0.84 55



Historial Predications of SNOs between AURA and NPP
